Location: Errabaliem
(16.8108°N, 80.4255°E)
Time: 13:09:06
(UTC+00:00)

SWIFT - Pass Details

Date: 05 August 2024
Orbit: 493 x 503 km, 20.6° (Epoch: 11 September)

Event Time Altitude Azimuth Distance (km) Brightness Sun altitude
Rises 14:39:53 0° 269° (W) 2,602 6.8 -21.1°
Reaches altitude 10° 14:42:09 10° 273° (W) 1,715 5.8 -21.6°
Maximum altitude 14:46:04 58° 353° (N) 593 2.5 -22.4°
Enters shadow 14:46:26 55° 18° (NNE) 611 2.5 -22.5°
